Time,TemperatureF,DewpointF,PressureIn,WindDirection,WindDirectionDegrees,WindSpeedMPH,WindSpeedGustMPH,Humidity,HourlyPrecipIn,Conditions,Clouds,dailyrainin,SoftwareType,DateUTC
2013-04-21 00:02:00,39.0,22.0,-100.00,SSE,155,7.0,12.0,50,0.00,,,-99.99,,2013-04-21 05:02:00,
2013-04-21 00:12:00,39.0,22.0,-100.00,ESE,120,11.0,13.0,49,0.00,,,-99.99,,2013-04-21 05:12:00,
2013-04-21 00:22:00,39.0,22.0,-100.00,ESE,120,10.0,13.0,49,0.00,,,-99.99,,2013-04-21 05:22:00,
2013-04-21 00:32:00,39.0,22.0,-100.00,SE,125,7.0,12.0,50,0.00,,,-99.99,,2013-04-21 05:32:00,
2013-04-21 00:42:00,39.0,22.0,-100.00,SE,130,6.0,12.0,51,0.00,,,-99.99,,2013-04-21 05:42:00,
2013-04-21 00:52:00,39.0,23.0,-100.00,SE,140,6.0,11.0,52,0.00,,,-99.99,,2013-04-21 05:52:00,
2013-04-21 01:01:00,39.0,23.0,-100.00,SE,140,6.0,11.0,52,0.00,,,-99.99,,2013-04-21 06:01:00,
2013-04-21 01:12:00,39.0,23.0,-100.00,SSE,150,6.0,9.0,52,0.00,,,-99.99,,2013-04-21 06:12:00,
2013-04-21 01:21:00,39.0,23.0,-100.00,SSE,160,7.0,11.0,52,0.00,,,-99.99,,2013-04-21 06:21:00,
2013-04-21 01:32:00,39.0,24.0,-100.00,South,170,9.0,20.0,54,0.00,,,-99.99,,2013-04-21 06:32:00,
2013-04-21 01:42:00,38.0,25.0,-100.00,SSE,150,6.0,14.0,60,0.00,,,-99.99,,2013-04-21 06:42:00,
2013-04-21 01:51:00,38.0,25.0,-100.00,SSE,150,6.0,14.0,60,0.00,,,-99.99,,2013-04-21 06:51:00,
2013-04-21 02:01:00,38.0,26.0,-100.00,ESE,115,6.0,10.0,60,0.00,,,-99.99,,2013-04-21 07:01:00,
2013-04-21 02:11:00,38.0,26.0,-100.00,ESE,120,8.0,11.0,61,0.00,,,-99.99,,2013-04-21 07:11:00,
2013-04-21 02:21:00,38.0,26.0,-100.00,ESE,120,8.0,11.0,61,0.00,,,-99.99,,2013-04-21 07:21:00,
2013-04-21 02:32:00,38.0,26.0,-100.00,SE,125,11.0,16.0,60,0.00,,,-99.99,,2013-04-21 07:32:00,
2013-04-21 02:42:00,39.0,26.0,-100.00,SE,145,7.0,13.0,58,0.00,,,-99.99,,2013-04-21 07:42:00,
2013-04-21 02:52:00,39.0,25.0,-100.00,SE,135,12.0,15.0,58,0.00,,,-99.99,,2013-04-21 07:52:00,
2013-04-21 03:01:00,39.0,25.0,-100.00,SE,135,12.0,15.0,58,0.00,,,-99.99,,2013-04-21 08:01:00,
2013-04-21 03:12:00,39.0,26.0,-100.00,SE,130,11.0,14.0,58,0.00,,,-99.99,,2013-04-21 08:12:00,
2013-04-21 03:21:00,38.0,26.0,-100.00,SE,140,9.0,14.0,59,0.00,,,-99.99,,2013-04-21 08:21:00,
2013-04-21 03:32:00,39.0,26.0,-100.00,SE,130,11.0,17.0,59,0.00,,,-99.99,,2013-04-21 08:32:00,
2013-04-21 03:41:00,39.0,26.0,-100.00,SE,130,11.0,17.0,59,0.00,,,-99.99,,2013-04-21 08:41:00,
2013-04-21 03:52:00,38.0,26.0,-100.00,SE,135,10.0,16.0,60,0.00,,,-99.99,,2013-04-21 08:52:00,
2013-04-21 04:01:00,38.0,26.0,-100.00,SE,135,10.0,16.0,60,0.00,,,-99.99,,2013-04-21 09:01:00,
2013-04-21 04:12:00,38.0,26.0,-100.00,SE,130,12.0,17.0,61,0.06,,,-99.99,,2013-04-21 09:12:00,
2013-04-21 04:21:00,38.0,27.0,-100.00,SE,135,9.0,15.0,63,0.00,,,-99.99,,2013-04-21 09:21:00,
2013-04-21 04:32:00,37.0,28.0,-100.00,SE,135,13.0,17.0,69,0.04,,,-99.99,,2013-04-21 09:32:00,
2013-04-21 04:43:00,37.0,28.0,-100.00,SE,135,13.0,17.0,69,0.04,,,-99.99,,2013-04-21 09:43:00,
2013-04-21 04:52:00,36.0,30.0,-100.00,SE,125,11.0,17.0,79,0.07,,,-99.99,,2013-04-21 09:52:00,
2013-04-21 05:02:00,36.0,30.0,-100.00,SE,125,11.0,17.0,79,0.07,,,-99.99,,2013-04-21 10:02:00,
2013-04-21 05:12:00,35.0,31.0,-100.00,SE,140,12.0,16.0,82,0.03,,,-99.99,,2013-04-21 10:12:00,
2013-04-21 05:22:00,35.0,31.0,-100.00,SE,135,13.0,19.0,85,0.13,,,-99.99,,2013-04-21 10:22:00,
2013-04-21 05:32:00,34.0,32.0,-100.00,SE,140,15.0,20.0,91,0.00,,,-99.99,,2013-04-21 10:32:00,
2013-04-21 05:42:00,34.0,32.0,-100.00,SE,140,15.0,20.0,91,0.00,,,-99.99,,2013-04-21 10:42:00,
2013-04-21 05:52:00,34.0,33.0,-100.00,SE,130,12.0,22.0,93,0.00,,,-99.99,,2013-04-21 10:52:00,
2013-04-21 06:02:00,34.0,33.0,-100.00,SE,130,12.0,22.0,93,0.00,,,-99.99,,2013-04-21 11:02:00,
2013-04-21 06:12:00,34.0,33.0,-100.00,SE,130,14.0,21.0,93,0.00,,,-99.99,,2013-04-21 11:12:00,
2013-04-21 06:22:00,35.0,33.0,-100.00,SE,125,12.0,21.0,93,0.00,,,-99.99,,2013-04-21 11:22:00,
2013-04-21 06:34:00,35.0,33.0,-100.00,SE,140,15.0,22.0,92,0.18,,,-99.99,,2013-04-21 11:34:00,
2013-04-21 06:42:00,34.0,33.0,-100.00,SE,135,10.0,22.0,93,0.24,,,-99.99,,2013-04-21 11:42:00,
2013-04-21 06:52:00,34.0,33.0,-100.00,SE,135,11.0,21.0,94,0.11,,,-99.99,,2013-04-21 11:52:00,
2013-04-21 07:02:00,34.0,33.0,-100.00,SE,135,11.0,21.0,94,0.11,,,-99.99,,2013-04-21 12:02:00,
2013-04-21 07:12:00,35.0,33.0,-100.00,SE,135,12.0,20.0,94,0.08,,,-99.99,,2013-04-21 12:12:00,
2013-04-21 07:22:00,35.0,33.0,-100.00,SE,125,16.0,21.0,94,0.08,,,-99.99,,2013-04-21 12:22:00,
2013-04-21 07:32:00,35.0,33.0,-100.00,SE,135,14.0,20.0,94,0.10,,,-99.99,,2013-04-21 12:32:00,
2013-04-21 07:42:00,35.0,33.0,-100.00,SE,135,14.0,20.0,94,0.10,,,-99.99,,2013-04-21 12:42:00,
2013-04-21 07:52:00,35.0,33.0,-100.00,SE,125,14.0,23.0,94,0.11,,,-99.99,,2013-04-21 12:52:00,
2013-04-21 08:01:00,35.0,33.0,-100.00,SE,125,14.0,23.0,94,0.11,,,-99.99,,2013-04-21 13:01:00,
2013-04-21 08:12:00,35.0,33.0,-100.00,SE,125,16.0,25.0,94,0.13,,,-99.99,,2013-04-21 13:12:00,
2013-04-21 08:21:00,35.0,33.0,-100.00,SE,125,17.0,26.0,93,0.00,,,-99.99,,2013-04-21 13:21:00,
2013-04-21 08:32:00,35.0,33.0,-100.00,SE,125,16.0,24.0,93,0.00,,,-99.99,,2013-04-21 13:32:00,
2013-04-21 08:42:00,35.0,33.0,-100.00,SE,125,16.0,24.0,93,0.00,,,-99.99,,2013-04-21 13:42:00,
2013-04-21 08:52:00,36.0,34.0,-100.00,SE,145,16.0,29.0,91,0.00,,,-99.99,,2013-04-21 13:52:00,
2013-04-21 09:02:00,36.0,34.0,-100.00,SE,145,16.0,29.0,91,0.00,,,-99.99,,2013-04-21 14:02:00,
2013-04-21 09:11:00,36.0,34.0,-100.00,SE,130,19.0,24.0,91,0.00,,,-99.99,,2013-04-21 14:11:00,
2013-04-21 09:21:00,37.0,34.0,-100.00,SE,140,18.0,28.0,90,0.00,,,-99.99,,2013-04-21 14:21:00,
2013-04-21 09:32:00,38.0,35.0,-100.00,SSE,150,14.0,29.0,88,0.00,,,-99.99,,2013-04-21 14:32:00,
2013-04-21 09:42:00,38.0,35.0,-100.00,SSE,150,14.0,29.0,88,0.00,,,-99.99,,2013-04-21 14:42:00,
2013-04-21 09:52:00,39.0,36.0,-100.00,SE,135,17.0,27.0,86,0.00,,,-99.99,,2013-04-21 14:52:00,
2013-04-21 10:02:00,39.0,36.0,-100.00,SE,135,17.0,27.0,86,0.00,,,-99.99,,2013-04-21 15:02:00,
2013-04-21 10:11:00,40.0,36.0,-100.00,SSE,160,18.0,29.0,85,0.00,,,-99.99,,2013-04-21 15:11:00,
2013-04-21 10:22:00,41.0,36.0,-100.00,SSE,165,18.0,30.0,82,0.00,,,-99.99,,2013-04-21 15:22:00,
2013-04-21 10:33:00,41.0,36.0,-100.00,SSE,150,14.0,29.0,80,0.00,,,-99.99,,2013-04-21 15:33:00,
2013-04-21 10:42:00,41.0,36.0,-100.00,SSE,150,14.0,29.0,80,0.00,,,-99.99,,2013-04-21 15:42:00,
2013-04-21 10:53:00,41.0,36.0,-100.00,South,170,21.0,29.0,80,0.00,,,-99.99,,2013-04-21 15:53:00,
2013-04-21 11:03:00,41.0,36.0,-100.00,South,170,21.0,29.0,80,0.00,,,-99.99,,2013-04-21 16:03:00,
2013-04-21 11:12:00,42.0,36.0,-100.00,SSE,165,18.0,26.0,78,0.00,,,-99.99,,2013-04-21 16:12:00,
2013-04-21 11:22:00,43.0,37.0,-100.00,SSE,160,15.0,27.0,77,0.00,,,-99.99,,2013-04-21 16:22:00,
2013-04-21 11:33:00,43.0,36.0,-100.00,South,170,22.0,29.0,75,0.00,,,-99.99,,2013-04-21 16:33:00,
2013-04-21 11:42:00,43.0,36.0,-100.00,South,170,22.0,29.0,75,0.00,,,-99.99,,2013-04-21 16:42:00,
2013-04-21 11:52:00,43.0,36.0,-100.00,SSE,165,17.0,28.0,75,0.00,,,-99.99,,2013-04-21 16:52:00,
2013-04-21 12:02:00,43.0,36.0,-100.00,SSE,165,17.0,28.0,75,0.00,,,-99.99,,2013-04-21 17:02:00,
2013-04-21 12:12:00,44.0,37.0,-100.00,SSE,160,15.0,24.0,75,0.00,,,-99.99,,2013-04-21 17:12:00,
2013-04-21 12:22:00,45.0,37.0,-100.00,SSE,160,18.0,28.0,74,0.00,,,-99.99,,2013-04-21 17:22:00,
2013-04-21 12:32:00,46.0,37.0,-100.00,South,170,15.0,34.0,72,0.00,,,-99.99,,2013-04-21 17:32:00,
2013-04-21 12:42:00,45.0,37.0,-100.00,SSE,150,17.0,30.0,72,0.03,,,-99.99,,2013-04-21 17:42:00,
2013-04-21 12:52:00,47.0,38.0,-100.00,SSE,165,17.0,27.0,71,0.00,,,-99.99,,2013-04-21 17:52:00,
2013-04-21 13:02:00,47.0,38.0,-100.00,SSE,165,17.0,27.0,71,0.00,,,-99.99,,2013-04-21 18:02:00,
2013-04-21 13:11:00,47.0,38.0,-100.00,SSE,165,19.0,28.0,70,0.00,,,-99.99,,2013-04-21 18:11:00,
2013-04-21 13:22:00,47.0,38.0,-100.00,SSE,165,19.0,28.0,70,0.00,,,-99.99,,2013-04-21 18:22:00,
2013-04-21 13:32:00,49.0,39.0,-100.00,SSE,160,15.0,23.0,69,0.00,,,-99.99,,2013-04-21 18:32:00,
2013-04-21 13:42:00,49.0,39.0,-100.00,SSE,160,15.0,23.0,69,0.00,,,-99.99,,2013-04-21 18:42:00,
2013-04-21 13:52:00,53.0,40.0,-100.00,SSE,150,17.0,27.0,62,0.00,,,-99.99,,2013-04-21 18:52:00,
2013-04-21 14:02:00,53.0,40.0,-100.00,SSE,150,17.0,27.0,62,0.00,,,-99.99,,2013-04-21 19:02:00,
2013-04-21 14:11:00,54.0,40.0,-100.00,South,170,19.0,27.0,60,0.00,,,-99.99,,2013-04-21 19:11:00,
2013-04-21 14:21:00,55.0,41.0,-100.00,South,170,17.0,28.0,59,0.00,,,-99.99,,2013-04-21 19:21:00,
2013-04-21 14:32:00,54.0,40.0,-100.00,South,170,21.0,29.0,59,0.00,,,-99.99,,2013-04-21 19:32:00,
2013-04-21 14:42:00,54.0,40.0,-100.00,South,170,21.0,29.0,59,0.00,,,-99.99,,2013-04-21 19:42:00,
2013-04-21 14:52:00,55.0,41.0,-100.00,South,170,17.0,26.0,57,0.00,,,-99.99,,2013-04-21 19:52:00,
2013-04-21 15:02:00,55.0,41.0,-100.00,South,170,17.0,26.0,57,0.00,,,-99.99,,2013-04-21 20:02:00,
2013-04-21 15:11:00,56.0,41.0,-100.00,SSE,150,19.0,28.0,56,0.00,,,-99.99,,2013-04-21 20:11:00,
2013-04-21 15:22:00,56.0,42.0,-100.00,SE,145,16.0,26.0,56,0.00,,,-99.99,,2013-04-21 20:22:00,
2013-04-21 15:32:00,59.0,42.0,-100.00,SE,140,15.0,26.0,53,0.00,,,-99.99,,2013-04-21 20:32:00,
2013-04-21 15:41:00,59.0,42.0,-100.00,SE,140,15.0,26.0,53,0.00,,,-99.99,,2013-04-21 20:41:00,
2013-04-21 15:52:00,59.0,41.0,-100.00,SSE,165,19.0,26.0,51,0.00,,,-99.99,,2013-04-21 20:52:00,
2013-04-21 16:02:00,59.0,41.0,-100.00,SSE,165,19.0,26.0,51,0.00,,,-99.99,,2013-04-21 21:02:00,
2013-04-21 16:12:00,59.0,41.0,-100.00,South,170,17.0,25.0,52,0.00,,,-99.99,,2013-04-21 21:12:00,
2013-04-21 16:21:00,59.0,41.0,-100.00,SSE,165,14.0,22.0,52,0.00,,,-99.99,,2013-04-21 21:21:00,
2013-04-21 16:33:00,58.0,42.0,-100.00,SSE,155,12.0,21.0,55,0.00,,,-99.99,,2013-04-21 21:33:00,
2013-04-21 16:43:00,58.0,42.0,-100.00,SSE,155,12.0,21.0,55,0.00,,,-99.99,,2013-04-21 21:43:00,
2013-04-21 16:53:00,59.0,42.0,-100.00,SSE,165,14.0,23.0,54,0.01,,,-99.99,,2013-04-21 21:53:00,
2013-04-21 17:02:00,59.0,42.0,-100.00,SSE,165,14.0,23.0,54,0.01,,,-99.99,,2013-04-21 22:02:00,
2013-04-21 17:12:00,58.0,43.0,-100.00,South,170,19.0,26.0,57,0.03,,,-99.99,,2013-04-21 22:12:00,
2013-04-21 17:22:00,54.0,45.0,-100.00,West,265,13.0,27.0,72,0.14,,,-99.99,,2013-04-21 22:22:00,
2013-04-21 17:33:00,52.0,47.0,-100.00,SSW,205,9.0,21.0,81,0.28,,,-99.99,,2013-04-21 22:33:00,
2013-04-21 17:43:00,52.0,47.0,-100.00,SSW,205,9.0,21.0,81,0.28,,,-99.99,,2013-04-21 22:43:00,
2013-04-21 17:52:00,52.0,48.0,-100.00,SW,230,13.0,22.0,87,0.17,,,-99.99,,2013-04-21 22:52:00,
2013-04-21 18:02:00,52.0,48.0,-100.00,SW,230,13.0,22.0,87,0.17,,,-99.99,,2013-04-21 23:02:00,
2013-04-21 18:12:00,51.0,48.0,-100.00,WSW,250,11.0,18.0,90,0.24,,,-99.99,,2013-04-21 23:12:00,
2013-04-21 18:22:00,51.0,48.0,-100.00,SW,235,10.0,19.0,90,0.20,,,-99.99,,2013-04-21 23:22:00,
2013-04-21 18:32:00,51.0,48.0,-100.00,WSW,240,7.0,16.0,91,0.04,,,-99.99,,2013-04-21 23:32:00,
2013-04-21 18:42:00,51.0,48.0,-100.00,WSW,240,7.0,16.0,91,0.04,,,-99.99,,2013-04-21 23:42:00,
2013-04-21 18:52:00,51.0,48.0,-100.00,SW,235,6.0,13.0,91,0.03,,,-99.99,,2013-04-21 23:52:00,
2013-04-21 19:01:00,51.0,48.0,-100.00,SW,235,6.0,13.0,91,0.03,,,-99.99,,2013-04-22 00:01:00,
2013-04-21 19:11:00,50.0,48.0,-100.00,WSW,255,9.0,18.0,91,0.20,,,-99.99,,2013-04-22 00:11:00,
2013-04-21 19:21:00,50.0,48.0,-100.00,WSW,245,12.0,18.0,91,0.16,,,-99.99,,2013-04-22 00:21:00,
2013-04-21 19:32:00,50.0,48.0,-100.00,SW,225,11.0,21.0,91,0.18,,,-99.99,,2013-04-22 00:32:00,
2013-04-21 19:42:00,50.0,48.0,-100.00,SW,225,11.0,21.0,91,0.18,,,-99.99,,2013-04-22 00:42:00,
2013-04-21 19:51:00,50.0,47.0,-100.00,SW,220,14.0,23.0,90,0.08,,,-99.99,,2013-04-22 00:51:00,
2013-04-21 20:01:00,50.0,47.0,-100.00,SW,220,14.0,23.0,90,0.08,,,-99.99,,2013-04-22 01:01:00,
2013-04-21 20:12:00,50.0,47.0,-100.00,SW,220,14.0,23.0,90,0.08,,,-99.99,,2013-04-22 01:12:00,
2013-04-21 20:21:00,51.0,46.0,-100.00,SSW,205,9.0,17.0,82,0.10,,,-99.99,,2013-04-22 01:21:00,
2013-04-21 20:32:00,51.0,46.0,-100.00,SSW,195,9.0,19.0,83,0.04,,,-99.99,,2013-04-22 01:32:00,
2013-04-21 20:42:00,51.0,46.0,-100.00,SSW,195,9.0,19.0,83,0.04,,,-99.99,,2013-04-22 01:42:00,
2013-04-21 20:52:00,51.0,46.0,-100.00,SSW,195,9.0,19.0,83,0.04,,,-99.99,,2013-04-22 01:52:00,
2013-04-21 21:02:00,51.0,46.0,-100.00,SSW,195,9.0,19.0,83,0.04,,,-99.99,,2013-04-22 02:02:00,
2013-04-21 21:11:00,51.0,46.0,-100.00,SSW,195,9.0,19.0,83,0.04,,,-99.99,,2013-04-22 02:11:00,